DELTA 1 DEB, 14473

Orbit data source: Space-Track

DELTA 1 DEB, 14473 is space debris in SSO originally from a launch on Tue, 06 Nov 1973 UTC launched from the Air Force Western Test Range (AFWTR). Debris objects in space refer to the collection of defunct objects orbiting the Earth. Examples of debris include non-operational satellites, rocket bodies, and fragments generated from explosions, collisions, or faulty payload assembly.

Loading next visibility...
Identifier
14473, 1973-086GQ
Orbit
SSO
Country
Flag of USUS
Related business
Manufacturer
Unknown
Mission
Spacecraft
Bus & Motor
Unknown
Mass
Unknown
Launch date (UTC)
1973-11-06 (52 years ago)
Launch vehicle
Unknown
Launch site
Air Force Western Test Range (AFWTR)
Object type
Payload
Rocket body
Debris
Shape & HBR
Unknown shape, 0.1 m
Radar Cross Section
Small (<0.1 m²)

Expand to show TLE details & history
Last TLE update: 8 hours ago

TLE from 8 hours ago
0 DELTA 1 DEB
1 14473U 73086GQ  25292.23716591  .00000624  00000-0  44958-2 0  9991
2 14473 102.5974  42.0063 0226414 125.0414 269.2346 12.41654098904915
Epoch: 2025-10-19T05:41Z
TLE epoch observation values (Epoch: 2025-10-19T05:41:31.134Z)
Latitude
30.88893°
Longitude
-78.97531°
Altitude
1,509.597 km
Speed
7.11 km/s
True Right ascension
02h 17m 26s
True Declination
30° 45' 07"
Sunlit
Object was in full shadow at epoch
Visualization orbit readout
Latitude
Unknown
Longitude
Unknown
Altitude
Unknown
Speed
Unknown
Apparent Right ascension
Unknown
Apparent Declination
Unknown
Sunlit
N/A
Visualization observer readout
Local Sidereal Time
08:24:12
Azimuth
Unknown
Elevation
Unknown
Doppler factor
Unknown
Orbital elements
Apogee altitude
1,675.515 km
Perigee altitude
1,318.897 km
Semi-major axis
7,875.343 km
Eccentricity
0.02264
Inclination
102.5974°
RAAN
42.0063°
Arg. of periapsis
125.0414°
True anomaly
266.64218°
Mean anomaly
269.2346°
Eccentric anomaly
267.93818°
Mean motion
3.10555 °/min
Orbital period
115.92 mins
BSTAR
0.0044958
Loading maneuver chart data...
Computing Atmospheric mass density...
Loading historical data...
Loading historical data...
Loading historical data...
Loading historical data...
Loading historical data...
Loading historical data...
Loading historical data...

Documentation

Showing up to 5 results
|